Weather History for Eastsound, WA

Change the Weather History Date:

Monday, March 4, 2013

  Actual Average (KBLI) Record (KBLI)
Temperature  
Mean Temperature 38 °F 42 °F  
Max Temperature 44 °F 50 °F 66 °F (1987)
Min Temperature 32 °F 35 °F 11 °F (1955)
Degree Days  
Heating Degree Days 27 23  
Month to date heating degree days 92  
Cooling Degree Days 0 0  
Month to date cooling degree days 0  
Year to date cooling degree days 0  
Moisture  
Dew Point 34 °F    
Average Humidity 85    
Maximum Humidity 100    
Minimum Humidity 53    
Precipitation  
Precipitation 0.00 in 0.10 in 0.91 in (1968)
Month to date precipitation 0.43  
Year to date precipitation 8.12  
Sea Level Pressure  
Sea Level Pressure 30.16 in    
Wind  
Wind Speed 2 mph (NNE)    
Max Wind Speed 10 mph    
Max Gust Speed 17 mph    
Visibility 10 miles    
Events      
T = Trace of Precipitation, MM = Missing Value Source: NWS Daily Summary

Daily Weather History Graph

Daily Weather History Graph

Search for Another Location

Airport:

Trip Planner

Search our weather history database for the weather conditions in past years. The results will help you decide how hot, cold, wet, or windy it might be!

Date:

Astronomy

Mar. 04, 2013 Rise Set
Actual Time 6:46 AM PST 6:00 PM PST
Civil Twilight 6:15 AM PST 6:32 PM PST
Nautical Twilight 5:38 AM PST 7:08 PM PST
Astronomical Twilight 5:02 AM PST 7:45 PM PST
Moon 1:23 AM PST (3/4) 10:25 AM PST (3/4)
Length of Visible Light 12h 16m
Length of Day
11h 13m
Waning Gibbous, 51% of the Moon is Illuminated
Mar 4
Waning Gibbous
Mar 4
Last Quarter
Mar 11
New
Mar 19
First Quarter
Mar 27
Full

Hourly Weather History & Observations

Time (PST) Temp. Windchill Dew Point Humidity Pressure Visibility Wind Dir Wind Speed Gust Speed Precip Events Conditions
12:15 AM 32.0 °F - 32.0 °F 100% 30.30 in 10.0 mi Calm Calm - N/A   Clear
12:35 AM 32.0 °F - 32.0 °F 100% 30.30 in 10.0 mi Calm Calm - N/A   Clear
12:55 AM 32.0 °F - 32.0 °F 100% 30.30 in 10.0 mi North - - N/A   Clear
1:15 AM 32.0 °F - 32.0 °F 100% 30.29 in 10.0 mi Calm Calm - N/A   Clear
1:35 AM 32.0 °F - 32.0 °F 100% 30.29 in 10.0 mi Calm Calm - N/A   Clear
2:15 AM 32.0 °F - 32.0 °F 100% 30.30 in 10.0 mi Calm Calm - N/A   Clear
2:35 AM 32.0 °F - 32.0 °F 100% 30.30 in 10.0 mi Calm Calm - N/A   Partly Cloudy
3:15 AM 33.8 °F - 33.8 °F 100% 30.29 in 10.0 mi Calm Calm - N/A   Overcast
3:35 AM 32.0 °F - 32.0 °F 100% 30.29 in 10.0 mi Calm Calm - N/A   Scattered Clouds
3:55 AM 32.0 °F - 32.0 °F 100% 30.28 in 10.0 mi Calm Calm - N/A   Clear
4:15 AM 32.0 °F - 32.0 °F 100% 30.28 in 10.0 mi Calm Calm - N/A   Clear
4:35 AM 32.0 °F - 32.0 °F 100% 30.28 in 9.0 mi Calm Calm - N/A   Clear
4:55 AM 32.0 °F - 32.0 °F 100% 30.28 in 8.0 mi Calm Calm - N/A   Clear
5:15 AM 32.0 °F - 32.0 °F 100% 30.27 in 7.0 mi Calm Calm - N/A   Clear
5:35 AM 32.0 °F - 32.0 °F 100% 30.27 in 10.0 mi Calm Calm - N/A   Clear
5:55 AM 32.0 °F - 32.0 °F 100% 30.27 in 9.0 mi Calm Calm - N/A   Clear
6:15 AM 32.0 °F - 32.0 °F 100% 30.27 in 10.0 mi Calm Calm - N/A   Clear
6:35 AM 32.0 °F - 32.0 °F 100% 30.26 in 9.0 mi Calm Calm - N/A   Partly Cloudy
6:55 AM 35.6 °F 30.7 °F 35.6 °F 100% 30.25 in 10.0 mi NE 5.8 mph - N/A   Clear
7:15 AM 37.4 °F 32.8 °F 33.8 °F 87% 30.25 in 10.0 mi NE 5.8 mph - N/A   Clear
7:35 AM 37.4 °F - 32.0 °F 81% 30.25 in 10.0 mi Calm Calm - N/A   Clear
7:55 AM 37.4 °F 34.9 °F 32.0 °F 81% 30.25 in 10.0 mi ENE 3.5 mph - N/A   Clear
8:15 AM 37.4 °F - 32.0 °F 81% 30.25 in 10.0 mi Calm Calm - N/A   Clear
8:35 AM 39.2 °F 35.0 °F 33.8 °F 81% 30.25 in 10.0 mi NE 5.8 mph - N/A   Clear
8:55 AM 39.2 °F 35.9 °F 33.8 °F 81% 30.25 in 10.0 mi NNE 4.6 mph - N/A   Clear
9:15 AM 39.2 °F 35.0 °F 33.8 °F 81% 30.24 in 10.0 mi North 5.8 mph - N/A   Clear
9:35 AM 39.2 °F 35.0 °F 35.6 °F 87% 30.24 in 10.0 mi North 5.8 mph - N/A   Clear
9:55 AM 39.2 °F 37.0 °F 35.6 °F 87% 30.24 in 10.0 mi NE 3.5 mph - N/A   Clear
10:15 AM 41.0 °F - 35.6 °F 81% 30.24 in 10.0 mi Calm Calm - N/A   Clear
10:35 AM 41.0 °F 39.0 °F 35.6 °F 81% 30.23 in 10.0 mi NE 3.5 mph - N/A   Clear
10:55 AM 41.0 °F - 35.6 °F 81% 30.23 in 10.0 mi Calm Calm - N/A   Clear
11:15 AM 42.8 °F 41.1 °F 35.6 °F 76% 30.22 in 10.0 mi North 3.5 mph - N/A   Clear
11:35 AM 42.8 °F 40.1 °F 35.6 °F 76% 30.21 in 10.0 mi NE 4.6 mph - N/A   Clear
11:55 AM 42.8 °F 39.3 °F 35.6 °F 76% 30.20 in 10.0 mi NE 5.8 mph - N/A   Clear
12:15 PM 44.6 °F 41.4 °F 35.6 °F 71% 30.20 in 10.0 mi North 5.8 mph - N/A   Clear
12:35 PM 42.8 °F 38.0 °F 35.6 °F 76% 30.19 in 10.0 mi North 8.1 mph - N/A   Clear
12:55 PM 42.8 °F 38.0 °F 35.6 °F 76% 30.18 in 10.0 mi North 8.1 mph - N/A   Clear
1:15 PM 42.8 °F 38.6 °F 35.6 °F 76% 30.17 in 10.0 mi North 6.9 mph - N/A   Clear
1:35 PM 42.8 °F 38.0 °F 35.6 °F 76% 30.15 in 10.0 mi NNW 8.1 mph - N/A   Clear
1:55 PM 42.8 °F 37.5 °F 37.4 °F 81% 30.14 in 10.0 mi North 9.2 mph - N/A   Clear
2:15 PM 42.8 °F 38.0 °F 37.4 °F 81% 30.13 in 10.0 mi North 8.1 mph - N/A   Clear
2:35 PM 42.8 °F 38.0 °F 37.4 °F 81% 30.12 in 10.0 mi NNW 8.1 mph - N/A   Clear
2:55 PM 44.6 °F 39.7 °F 37.4 °F 76% 30.11 in 10.0 mi North 9.2 mph - N/A   Clear
3:15 PM 44.6 °F 39.7 °F 37.4 °F 76% 30.11 in 10.0 mi NNW 9.2 mph - N/A   Clear
3:35 PM 42.8 °F 38.0 °F 37.4 °F 81% 30.09 in 10.0 mi NNW 8.1 mph - N/A   Clear
3:55 PM 42.8 °F 38.0 °F 37.4 °F 81% 30.08 in 10.0 mi North 8.1 mph - N/A   Clear
4:15 PM 42.8 °F 38.0 °F 37.4 °F 81% 30.07 in 10.0 mi North 8.1 mph - N/A   Clear
4:35 PM 42.8 °F 39.3 °F 37.4 °F 81% 30.06 in 10.0 mi NNW 5.8 mph - N/A   Clear
4:55 PM 42.8 °F 39.3 °F 37.4 °F 81% 30.06 in 10.0 mi NNW 5.8 mph - N/A   Clear
5:15 PM 42.8 °F 39.3 °F 37.4 °F 81% 30.05 in 10.0 mi North 5.8 mph - N/A   Clear
5:35 PM 42.8 °F 41.1 °F 37.4 °F 81% 30.04 in 10.0 mi North 3.5 mph - N/A   Clear
5:55 PM 41.0 °F 38.0 °F 37.4 °F 87% 30.04 in 10.0 mi North 4.6 mph - N/A   Clear
6:15 PM 41.0 °F - 37.4 °F 87% 30.03 in 10.0 mi Calm Calm - N/A   Clear
6:35 PM 39.2 °F - 37.4 °F 93% 30.03 in 10.0 mi Calm Calm - N/A   Clear
7:15 PM 37.4 °F - 37.4 °F 100% 30.02 in 10.0 mi Calm Calm - N/A   Clear
7:35 PM 39.2 °F - 37.4 °F 93% 30.01 in 9.0 mi Calm Calm - N/A   Clear
7:55 PM 37.4 °F - 37.4 °F 100% 30.01 in 10.0 mi Calm Calm - N/A   Clear
8:15 PM 37.4 °F - 37.4 °F 100% 29.99 in 10.0 mi Calm Calm - N/A   Clear
8:35 PM 37.4 °F - 37.4 °F 100% 29.99 in 10.0 mi Calm Calm - N/A   Clear
8:55 PM 39.2 °F 35.9 °F 35.6 °F 87% 29.99 in 10.0 mi NE 4.6 mph - N/A   Clear
9:15 PM 44.6 °F 43.1 °F 32.0 °F 61% 29.99 in 10.0 mi NE 3.5 mph - N/A   Clear
9:35 PM 44.6 °F 41.4 °F 30.2 °F 57% 29.99 in 10.0 mi NE 5.8 mph - N/A   Clear
9:55 PM 44.6 °F 42.2 °F 30.2 °F 57% 29.98 in 10.0 mi NE 4.6 mph - N/A   Clear
10:15 PM 44.6 °F 41.4 °F 30.2 °F 57% 29.99 in 10.0 mi East 5.8 mph - N/A   Clear
10:35 PM 44.6 °F 39.2 °F 30.2 °F 57% 29.98 in 10.0 mi ENE 10.4 mph 17.3 mph N/A   Clear
10:55 PM 44.6 °F 41.4 °F 30.2 °F 57% 29.97 in 10.0 mi ENE 5.8 mph - N/A   Clear
11:15 PM 44.6 °F 40.7 °F 30.2 °F 57% 29.96 in 10.0 mi ENE 6.9 mph - N/A   Clear
11:55 PM 44.6 °F 39.7 °F 28.4 °F 53% 29.96 in 10.0 mi ENE 9.2 mph 17.3 mph N/A   Clear